TimeEDT,TemperatureF,Dew PointF,Humidity,Sea Level PressureIn,VisibilityMPH,Wind Direction,Wind SpeedMPH,Gust SpeedMPH,PrecipitationIn,Events,Conditions,WindDirDegrees,DateUTC
12:53 AM,33.1,32.0,96,30.37,10.0,Calm,Calm,-,0.01,,Clear,0,2013-10-09 04:53:00
1:53 AM,32.0,30.9,96,30.38,10.0,Calm,Calm,-,0.01,,Clear,0,2013-10-09 05:53:00
2:53 AM,30.9,30.0,96,30.38,10.0,Calm,Calm,-,0.01,,Clear,0,2013-10-09 06:53:00
3:53 AM,28.9,28.9,100,30.40,10.0,Calm,Calm,-,0.01,,Clear,0,2013-10-09 07:53:00
4:53 AM,30.0,28.0,92,30.42,10.0,Calm,Calm,-,0.01,,Clear,0,2013-10-09 08:53:00
5:53 AM,30.0,28.9,96,30.43,10.0,Calm,Calm,-,0.01,,Clear,0,2013-10-09 09:53:00
6:53 AM,30.0,28.9,96,30.45,10.0,Calm,Calm,-,0.01,,Clear,0,2013-10-09 10:53:00
7:53 AM,33.1,32.0,96,30.46,10.0,Calm,Calm,-,N/A,,Clear,0,2013-10-09 11:53:00
8:53 AM,46.0,37.9,73,30.46,10.0,Calm,Calm,-,0.01,,Clear,0,2013-10-09 12:53:00
9:53 AM,52.0,37.9,59,30.45,10.0,WNW,3.5,-,0.01,,Clear,300,2013-10-09 13:53:00
10:53 AM,55.0,37.9,53,30.45,10.0,Calm,Calm,-,N/A,,Clear,0,2013-10-09 14:53:00
11:53 AM,57.0,37.9,49,30.42,10.0,WSW,3.5,-,0.01,,Clear,250,2013-10-09 15:53:00
12:53 PM,60.1,37.9,44,30.40,10.0,Variable,4.6,-,N/A,,Clear,0,2013-10-09 16:53:00
1:53 PM,61.0,37.9,42,30.38,10.0,Calm,Calm,-,0.01,,Clear,0,2013-10-09 17:53:00
2:53 PM,62.1,37.9,41,30.36,10.0,West,5.8,-,N/A,,Clear,270,2013-10-09 18:53:00
3:53 PM,62.1,37.9,41,30.35,10.0,West,8.1,-,N/A,,Clear,260,2013-10-09 19:53:00
4:53 PM,61.0,39.0,44,30.34,10.0,SSW,5.8,-,N/A,,Clear,200,2013-10-09 20:53:00
5:53 PM,55.0,42.1,62,30.33,10.0,South,3.5,-,N/A,,Clear,190,2013-10-09 21:53:00
6:53 PM,51.1,41.0,68,30.34,10.0,South,4.6,-,N/A,,Clear,190,2013-10-09 22:53:00
7:53 PM,53.1,39.9,61,30.33,10.0,South,4.6,-,N/A,,Clear,190,2013-10-09 23:53:00
8:53 PM,51.1,39.9,66,30.32,10.0,SSW,6.9,-,N/A,,Clear,210,2013-10-10 00:53:00
9:53 PM,46.9,39.0,74,30.32,10.0,SW,5.8,-,N/A,,Clear,220,2013-10-10 01:53:00
10:53 PM,48.0,39.0,71,30.32,10.0,South,3.5,-,N/A,,Clear,190,2013-10-10 02:53:00
11:53 PM,46.9,39.0,74,30.31,10.0,SSW,4.6,-,N/A,,Clear,210,2013-10-10 03:53:00